EW3230 Weather Reports


time (UTC)temp
F
wind
direction
speed
knots
gust
knots
rain 1hr
in
rain 24hr
in
rain mn
in
humidity
%
barometer
mb
20260904052144 67 23 0.0 0.0 0.00 0.29 0.00 56 1011.0
20260904051137 67 23 0.0 0.0 0.00 0.29 0.00 56 1011.0
20260904050149 67 23 0.0 0.0 0.00 0.29 0.00 56 1011.3
20260904045639 67 22 0.0 0.0 0.00 0.29 0.00 56 1011.4
20260904044139 67 22 0.0 0.0 0.00 0.29 0.00 56 1011.4
20260904043137 67 23 0.0 0.0 0.00 0.29 0.00 56 1011.6
20260904042637 67 23 0.0 0.0 0.00 0.29 0.00 56 1011.6
20260904041138 67 23 0.0 0.0 0.00 0.29 0.00 56 1011.6
20260904040138 67 20 0.0 0.0 0.00 0.29 0.00 56 1011.7
20260904035635 68 22 0.0 0.0 0.00 0.29 0.29 56 1011.8
20260904034128 68 20 0.0 0.0 0.00 0.29 0.29 56 1011.7
20260904033128 68 20 0.0 0.0 0.00 0.29 0.29 56 1011.9
20260904032130 68 36 0.0 0.0 0.00 0.29 0.29 56 1011.7
20260904031130 68 35 0.0 0.0 0.00 0.29 0.29 55 1011.5
20260904030129 69 36 0.0 0.0 0.00 0.29 0.29 55 1011.6
20260904025630 69 35 0.0 0.0 0.00 0.29 0.29 55 1011.7
20260904024129 69 35 0.0 0.0 0.00 0.29 0.29 55 1011.9
20260904023630 69 35 0.0 0.0 0.00 0.29 0.29 55 1011.9
20260904022631 69 36 0.0 0.0 0.00 0.29 0.29 55 1012.1
20260904021127 69 35 0.0 0.0 0.00 0.29 0.29 55 1011.9
20260904020127 70 35 0.0 0.0 0.00 0.29 0.29 55 1012.1
20260904015128 70 35 0.0 0.0 0.00 0.29 0.29 55 1012.2
20260904014629 70 36 0.0 0.0 0.00 0.29 0.29 55 1012.5
20260904013130 70 35 0.0 0.0 0.00 0.29 0.29 55 1012.6
20260904012128 70 35 0.0 0.0 0.00 0.29 0.29 55 1012.6
20260904011126 70 35 0.0 0.0 0.00 0.29 0.29 55 1012.6
20260904010124 70 35 0.0 0.0 0.00 0.29 0.29 55 1012.4
20260904005126 71 36 0.0 0.0 0.00 0.29 0.29 55 1012.2
20260904004125 71 35 0.0 0.0 0.00 0.29 0.29 56 1012.2
20260904003125 71 35 0.0 0.0 0.00 0.29 0.29 56 1012.0
20260904002126 71 35 0.0 0.0 0.00 0.29 0.29 56 1011.9
20260904001126 71 36 0.0 0.0 0.00 0.29 0.29 56 1011.7
20260904000627 72 35 0.0 0.0 0.00 0.29 0.29 57 1011.7
20260903235626 72 36 0.0 0.0 0.00 0.29 0.29 57 1011.6
20260903234125 72 35 0.0 0.9 0.00 0.29 0.29 57 1011.5
20260903233126 73 35 0.0 0.0 0.00 0.29 0.29 58 1011.6
20260903232118 73 36 0.0 0.0 0.00 0.29 0.29 59 1011.5
20260903231120 73 35 0.0 0.0 0.00 0.29 0.29 60 1011.6
20260903230120 74 36 0.0 0.0 0.00 0.29 0.29 61 1011.5
20260903225118 74 35 0.0 0.0 0.00 0.29 0.29 62 1011.7
20260903224119 75 35 0.0 0.0 0.00 0.29 0.29 62 1011.7
20260903223120 75 36 0.0 0.0 0.00 0.29 0.29 62 1011.9
20260903222118 75 35 0.0 1.7 0.00 0.29 0.29 62 1011.8
20260903221621 75 63 0.0 0.9 0.00 0.29 0.29 62 1011.9
20260903221235 74 60 0.0 0.9 0.00 0.29 0.29 64 1011.8
20260903215617 74 68 0.0 3.5 0.00 0.29 0.29 66 1011.7
20260903214115 75 248 0.0 2.6 0.00 0.29 0.29 66 1011.8
20260903213114 74 75 0.9 3.5 0.00 0.29 0.29 66 1011.8
20260903212114 75 273 0.0 1.7 0.00 0.29 0.29 65 1011.9
20260903211112 75 52 0.0 0.9 0.00 0.29 0.29 66 1011.7
20260903210116 75 253 0.0 1.7 0.00 0.29 0.29 67 1011.7
20260903205117 76 36 0.0 3.5 0.00 0.29 0.29 69 1011.9
20260903205113 75 96 0.0 2.6 0.00 0.29 0.29 69 1011.7
20260903203114 76 287 0.9 3.5 0.00 0.29 0.29 69 1011.8
20260903202108 77 52 0.0 2.6 0.00 0.29 0.29 68 1011.8
20260903201119 76 41 0.9 4.3 0.00 0.29 0.29 69 1011.7
20260903200109 78 97 0.9 5.2 0.00 0.29 0.29 72 1012.0
20260903195108 80 307 0.0 2.6 0.00 0.29 0.29 72 1012.0
20260903194108 79 191 0.0 0.9 0.00 0.29 0.29 71 1012.0
20260903193108 79 193 0.0 1.7 0.00 0.29 0.29 69 1012.1
20260903192109 78 134 0.0 0.9 0.00 0.29 0.29 70 1012.2
20260903191108 78 134 0.0 0.9 0.00 0.29 0.29 70 1012.4
20260903190109 78 131 0.0 0.9 0.00 0.29 0.29 70 1012.5
20260903185603 79 134 0.0 2.6 0.00 0.29 0.29 70 1012.6
20260903184103 79 101 0.0 1.7 0.00 0.29 0.29 71 1012.5
20260903183100 80 134 0.0 0.9 0.00 0.29 0.29 72 1012.7
20260903182102 79 135 0.0 1.7 0.00 0.29 0.29 69 1012.7
20260903181631 79 123 0.0 1.7 0.00 0.29 0.29 69 1012.8
20260903180112 79 145 0.9 1.7 0.00 0.29 0.29 70 1012.9
20260903175100 80 110 0.0 1.7 0.00 0.29 0.29 72 1012.9
20260903174102 79 164 0.0 0.9 0.00 0.29 0.29 73 1013.0
20260903173102 79 237 0.0 0.9 0.00 0.29 0.29 72 1013.2
20260903172058 79 236 0.0 0.9 0.00 0.29 0.29 71 1013.3
20260903171055 78 236 0.0 1.7 0.00 0.29 0.29 70 1013.1
20260903170106 78 246 0.0 0.9 0.00 0.29 0.29 69 1013.3
20260903165054 77 240 0.0 1.7 0.00 0.29 0.29 66 1013.1
20260903164054 77 248 0.0 0.9 0.00 0.29 0.29 65 1013.0
20260903163055 76 261 0.0 0.0 0.00 0.29 0.29 62 1013.0
20260903162054 76 262 0.0 0.9 0.00 0.29 0.29 57 1013.0
20260903161556 75 262 0.0 0.0 0.00 0.29 0.29 54 1013.1
20260903160107 75 302 0.0 1.7 0.00 0.29 0.29 52 1013.3
20260903155047 74 249 0.0 1.7 0.00 0.29 0.29 53 1013.3
20260903154549 74 243 0.0 0.0 0.00 0.29 0.29 52 1013.6
20260903153050 73 242 0.0 1.7 0.00 0.29 0.29 53 1013.6
20260903152046 73 263 0.0 0.9 0.00 0.29 0.29 53 1013.8
20260903151049 73 255 0.0 0.0 0.00 0.29 0.29 53 1013.9
20260903150100 72 208 0.0 0.0 0.00 0.29 0.29 53 1014.1
20260903145049 72 208 0.0 0.0 0.00 0.29 0.29 54 1014.2
20260903144548 72 208 0.0 0.0 0.00 0.29 0.29 54 1014.2
20260903144203 71 208 0.0 0.9 0.00 0.29 0.29 54 1014.4
20260903142042 71 269 0.0 0.9 0.00 0.29 0.29 55 1014.8
20260903141041 70 156 0.0 0.0 0.01 0.29 0.29 55 1014.9
20260903140054 70 156 0.0 0.9 0.01 0.29 0.29 55 1014.9
20260903135041 70 153 0.0 0.9 0.01 0.29 0.29 55 1014.8
20260903134041 69 159 0.0 0.9 0.03 0.29 0.29 56 1015.0
20260903133041 69 159 0.0 0.9 0.04 0.29 0.29 56 1014.9
20260903132041 69 161 0.0 0.9 0.04 0.29 0.29 56 1014.8
20260903131041 68 161 0.0 0.9 0.04 0.28 0.28 56 1014.9
20260903130053 68 162 0.0 0.9 0.04 0.28 0.28 56 1014.8
20260903125036 68 170 0.0 0.9 0.06 0.28 0.28 56 1015.0
20260903124537 67 172 0.0 0.9 0.07 0.26 0.26 56 1015.2
20260903123035 67 163 0.0 0.9 0.06 0.25 0.25 56 1015.4
20260903122036 67 167 0.0 0.9 0.06 0.25 0.25 57 1015.4
20260903121035 67 166 0.0 0.9 0.05 0.24 0.24 57 1015.5
20260903120035 67 159 0.0 0.9 0.05 0.24 0.24 57 1015.6
20260903115035 67 149 0.0 0.9 0.03 0.22 0.23 57 1015.8
20260903114047 67 142 0.0 0.9 0.00 0.19 0.19 57 1015.7
20260903113036 67 145 0.0 0.9 0.00 0.19 0.19 57 1015.9
20260903112042 66 144 0.0 0.9 0.01 0.19 0.19 57 1016.0
20260903111030 66 139 0.0 0.9 0.04 0.19 0.19 57 1016.1
20260903110030 66 142 0.0 0.9 0.11 0.19 0.19 57 1016.1
20260903105043 66 143 0.0 0.9 0.14 0.19 0.19 58 1016.0
20260903104029 65 145 0.0 0.9 0.16 0.19 0.19 58 1015.8
20260903103030 65 142 0.0 0.9 0.17 0.19 0.19 58 1015.7
20260903102041 65 125 0.0 0.9 0.16 0.18 0.19 58 1015.8
20260903101028 65 136 0.0 0.9 0.13 0.15 0.16 58 1015.8
20260903100028 65 141 0.0 0.9 0.07 0.08 0.08 58 1016.0
20260903095023 65 139 0.0 0.9 0.04 0.05 0.05 58 1015.8
20260903094022 65 142 0.0 0.9 0.02 0.03 0.03 59 1015.9
20260903093024 65 142 0.0 0.0 0.01 0.02 0.03 59 1015.9
20260903092024 65 141 0.0 0.9 0.01 0.02 0.02 59 1015.9
20260903091024 65 141 0.0 0.9 0.01 0.01 0.01 59 1015.9
20260903090022 65 141 0.0 0.0 0.01 0.01 0.01 59 1016.3
20260903085524 65 141 0.0 0.0 0.01 0.01 0.01 59 1016.3
20260903084024 65 141 0.0 0.0 0.01 0.01 0.01 60 1016.4
20260903083524 64 141 0.0 0.0 0.01 0.01 0.01 61 1016.4
20260903082018 64 141 0.0 0.0 0.01 0.01 0.01 63 1016.5
20260903081018 63 141 0.0 0.0 0.00 0.00 0.00 65 1016.7
20260903080020 63 141 0.0 0.0 0.00 0.00 0.00 66 1017.0
20260903075018 63 143 0.0 0.0 0.00 0.00 0.00 66 1017.1
20260903074017 63 141 0.0 0.0 0.00 0.00 0.00 67 1017.0
20260903073017 63 141 0.0 0.0 0.00 0.00 0.00 67 1017.3
20260903072017 63 141 0.0 0.0 0.00 0.00 0.00 67 1017.3
20260903071017 63 141 0.0 0.0 0.00 0.00 0.00 67 1017.4
20260903070016 63 141 0.0 0.0 0.00 0.00 0.00 68 1017.7
20260903065011 62 141 0.0 0.9 0.00 0.00 0.00 67 1017.7
20260903064512 62 141 0.0 0.0 0.00 0.00 0.00 67 1018.0
20260903063011 62 141 0.0 0.0 0.00 0.00 0.00 67 1018.0
20260903062017 61 142 0.0 0.0 0.00 0.00 0.00 65 1018.5
20260903062011 62 141 0.0 0.9 0.00 0.00 0.00 66 1018.3
20260903060511 61 142 0.0 0.9 0.00 0.00 0.00 64 1018.6
20260903055011 61 142 0.0 0.0 0.00 0.00 0.00 64 1018.8
20260903054012 61 142 0.0 0.0 0.00 0.00 0.00 64 1018.7
20260903053512 60 142 0.0 0.0 0.00 0.00 0.00 63 1019.0